Data supplied by UK-AIR on 4/5/2019
All Data GMT hour ending 
Status: R =Ratified P=Provisional,P*=As supplied
,,Storrington Roadside,,,,,,,,,,,,,,,,,,,,,,,
Date,time,"Nitric oxide",status,unit,"Nitrogen dioxide",status,unit,"Nitrogen oxides as nitrogen dioxide",status,unit
 
01-01-2018,01:00,1.18987,R,ugm-3,0.97543,R,ugm-3,2.79988,R,ugm-3
01-01-2018,02:00,1.35986,R,ugm-3,1.95918,R,ugm-3,4.04426,R,ugm-3
01-01-2018,03:00,1.05177,R,ugm-3,2.72712,R,ugm-3,4.33981,R,ugm-3
01-01-2018,04:00,0.47808,R,ugm-3,1.77203,R,ugm-3,2.48878,R,ugm-3
01-01-2018,05:00,0.54182,R,ugm-3,0.66249,R,ugm-3,1.49327,R,ugm-3
01-01-2018,06:00,2.35850,R,ugm-3,4.96996,R,ugm-3,8.58628,R,ugm-3
01-01-2018,07:00,1.78481,R,ugm-3,4.16968,R,ugm-3,6.90636,R,ugm-3
01-01-2018,08:00,2.67722,R,ugm-3,5.60122,R,ugm-3,9.70623,R,ugm-3
01-01-2018,09:00,2.16727,R,ugm-3,6.75644,R,ugm-3,10.07955,R,ugm-3
01-01-2018,10:00,2.58160,R,ugm-3,3.60126,R,ugm-3,7.55966,R,ugm-3
01-01-2018,11:00,3.79273,R,ugm-3,4.82409,R,ugm-3,10.63952,R,ugm-3
01-01-2018,12:00,13.09925,R,ugm-3,21.58623,R,ugm-3,41.67146,R,ugm-3
01-01-2018,13:00,18.93176,R,ugm-3,32.56895,R,ugm-3,61.59724,R,ugm-3
01-01-2018,14:00,16.44577,R,ugm-3,26.30119,R,ugm-3,51.51769,R,ugm-3
01-01-2018,15:00,11.50567,R,ugm-3,17.17000,R,ugm-3,34.81177,R,ugm-3
01-01-2018,16:00,15.48962,R,ugm-3,25.57403,R,ugm-3,49.32446,R,ugm-3
01-01-2018,17:00,9.78460,R,ugm-3,18.68898,R,ugm-3,33.69182,R,ugm-3
01-01-2018,18:00,9.33839,R,ugm-3,13.77340,R,ugm-3,28.09207,R,ugm-3
01-01-2018,19:00,5.64128,R,ugm-3,9.17602,R,ugm-3,17.82587,R,ugm-3
01-01-2018,20:00,3.69711,R,ugm-3,4.73738,R,ugm-3,10.40620,R,ugm-3
01-01-2018,21:00,2.29476,R,ugm-3,5.62768,R,ugm-3,9.14626,R,ugm-3
01-01-2018,22:00,2.96406,R,ugm-3,4.60142,R,ugm-3,9.14626,R,ugm-3
01-01-2018,23:00,1.78481,R,ugm-3,3.00307,R,ugm-3,5.73974,R,ugm-3
01-01-2018,24:00,1.21112,R,ugm-3,3.50940,R,ugm-3,5.36643,R,ugm-3
02-01-2018,01:00,0.76528,R,ugm-3,1.00509,R,ugm-3,2.17850,R,ugm-3
02-01-2018,02:00,0.51018,R,ugm-3,0.40034,R,ugm-3,1.18261,R,ugm-3
02-01-2018,03:00,0.51018,R,ugm-3,0.47814,R,ugm-3,1.26042,R,ugm-3
02-01-2018,04:00,0.92471,R,ugm-3,2.17665,R,ugm-3,3.59452,R,ugm-3
02-01-2018,05:00,2.39149,R,ugm-3,6.64983,R,ugm-3,10.31673,R,ugm-3
02-01-2018,06:00,6.02656,R,ugm-3,13.58693,R,ugm-3,22.82752,R,ugm-3
02-01-2018,07:00,41.13364,R,ugm-3,47.28564,R,ugm-3,110.35635,R,ugm-3
02-01-2018,08:00,28.50657,R,ugm-3,32.33558,R,ugm-3,76.04505,R,ugm-3
02-01-2018,09:00,20.98135,R,ugm-3,27.16193,R,ugm-3,59.33287,R,ugm-3
02-01-2018,10:00,12.37198,R,ugm-3,15.48124,R,ugm-3,34.45135,R,ugm-3
02-01-2018,11:00,7.46145,R,ugm-3,11.99365,R,ugm-3,23.43439,R,ugm-3
02-01-2018,12:00,13.80687,R,ugm-3,14.21474,R,ugm-3,35.38499,R,ugm-3
02-01-2018,13:00,9.56596,R,ugm-3,7.59973,R,ugm-3,22.26733,R,ugm-3
02-01-2018,14:00,9.75728,R,ugm-3,9.76985,R,ugm-3,23.58999,R,ugm-3
02-01-2018,15:00,6.34542,R,ugm-3,10.34377,R,ugm-3,20.07328,R,ugm-3
02-01-2018,16:00,6.31354,R,ugm-3,11.74644,R,ugm-3,21.42706,R,ugm-3
02-01-2018,17:00,6.44108,R,ugm-3,10.66391,R,ugm-3,20.54010,R,ugm-3
02-01-2018,18:00,4.81487,R,ugm-3,8.11574,R,ugm-3,15.49844,R,ugm-3
02-01-2018,19:00,2.58281,R,ugm-3,5.28279,R,ugm-3,9.24304,R,ugm-3
02-01-2018,20:00,1.88131,R,ugm-3,3.46413,R,ugm-3,6.34876,R,ugm-3
02-01-2018,21:00,1.37112,R,ugm-3,3.12603,R,ugm-3,5.22839,R,ugm-3
02-01-2018,22:00,0.76528,R,ugm-3,0.97397,R,ugm-3,2.14737,R,ugm-3
02-01-2018,23:00,0.92471,R,ugm-3,1.00960,R,ugm-3,2.42747,R,ugm-3
02-01-2018,24:00,0.89282,R,ugm-3,1.80540,R,ugm-3,3.17438,R,ugm-3
03-01-2018,01:00,0.72310,R,ugm-3,0.57245,R,ugm-3,1.68118,R,ugm-3
03-01-2018,02:00,0.72310,R,ugm-3,0.82151,R,ugm-3,1.93025,R,ugm-3
03-01-2018,03:00,0.82944,R,ugm-3,1.29669,R,ugm-3,2.56847,R,ugm-3
03-01-2018,04:00,1.62697,R,ugm-3,1.01741,R,ugm-3,3.30010,R,ugm-3
03-01-2018,05:00,1.85028,R,ugm-3,2.80540,R,ugm-3,5.47941,R,ugm-3
03-01-2018,06:00,2.80733,R,ugm-3,2.93392,R,ugm-3,7.23842,R,ugm-3
03-01-2018,07:00,10.30417,R,ugm-3,10.77252,R,ugm-3,26.57202,R,ugm-3
03-01-2018,08:00,16.23783,R,ugm-3,14.70352,R,ugm-3,39.60118,R,ugm-3
03-01-2018,09:00,10.65508,R,ugm-3,10.84155,R,ugm-3,27.17911,R,ugm-3
03-01-2018,10:00,8.80480,R,ugm-3,10.31625,R,ugm-3,23.81675,R,ugm-3
03-01-2018,11:00,10.46367,R,ugm-3,12.62942,R,ugm-3,28.67350,R,ugm-3
03-01-2018,12:00,9.60233,R,ugm-3,6.71170,R,ugm-3,21.43507,R,ugm-3
03-01-2018,13:00,8.80480,R,ugm-3,11.29694,R,ugm-3,24.79744,R,ugm-3
03-01-2018,14:00,9.41093,R,ugm-3,12.09544,R,ugm-3,26.52532,R,ugm-3
03-01-2018,15:00,10.43177,R,ugm-3,11.18395,R,ugm-3,27.17911,R,ugm-3
03-01-2018,16:00,11.06980,R,ugm-3,13.38122,R,ugm-3,30.35468,R,ugm-3
03-01-2018,17:00,10.71889,R,ugm-3,16.16086,R,ugm-3,32.59626,R,ugm-3
03-01-2018,18:00,7.33733,R,ugm-3,15.55510,R,ugm-3,26.80552,R,ugm-3
03-01-2018,19:00,7.30543,R,ugm-3,16.02431,R,ugm-3,27.22581,R,ugm-3
03-01-2018,20:00,4.21099,R,ugm-3,10.26166,R,ugm-3,16.71843,R,ugm-3
03-01-2018,21:00,2.23310,R,ugm-3,8.34424,R,ugm-3,11.76828,R,ugm-3
03-01-2018,22:00,2.00979,R,ugm-3,8.21964,R,ugm-3,11.30128,R,ugm-3
03-01-2018,23:00,0.92514,R,ugm-3,4.41891,R,ugm-3,5.83744,R,ugm-3
03-01-2018,24:00,0.76564,R,ugm-3,3.82289,R,ugm-3,4.99685,R,ugm-3
04-01-2018,01:00,0.68088,R,ugm-3,2.38191,R,ugm-3,3.42591,R,ugm-3
04-01-2018,02:00,0.72344,R,ugm-3,2.93955,R,ugm-3,4.04881,R,ugm-3
04-01-2018,03:00,1.02132,R,ugm-3,3.19913,R,ugm-3,4.76513,R,ugm-3
04-01-2018,04:00,1.02132,R,ugm-3,2.03120,R,ugm-3,3.59721,R,ugm-3
04-01-2018,05:00,5.87261,R,ugm-3,12.90572,R,ugm-3,21.91026,R,ugm-3
04-01-2018,06:00,11.52180,R,ugm-3,19.19318,R,ugm-3,36.85969,R,ugm-3
04-01-2018,07:00,24.89474,R,ugm-3,21.57960,R,ugm-3,59.75101,R,ugm-3
04-01-2018,08:00,7.59609,R,ugm-3,9.18860,R,ugm-3,20.83577,R,ugm-3
04-01-2018,09:00,8.07483,R,ugm-3,10.69695,R,ugm-3,23.07819,R,ugm-3
04-01-2018,10:00,8.48975,R,ugm-3,9.54687,R,ugm-3,22.56430,R,ugm-3
04-01-2018,11:00,5.04278,R,ugm-3,7.21728,R,ugm-3,14.94943,R,ugm-3
04-01-2018,12:00,4.85128,R,ugm-3,5.68894,R,ugm-3,13.12747,R,ugm-3
04-01-2018,13:00,4.91512,R,ugm-3,4.51657,R,ugm-3,12.05298,R,ugm-3
04-01-2018,14:00,5.61728,R,ugm-3,7.45760,R,ugm-3,16.07064,R,ugm-3
04-01-2018,15:00,10.66006,R,ugm-3,12.19888,R,ugm-3,28.54407,R,ugm-3
04-01-2018,16:00,15.54326,R,ugm-3,17.88560,R,ugm-3,41.71826,R,ugm-3
04-01-2018,17:00,11.13880,R,ugm-3,14.17440,R,ugm-3,31.25366,R,ugm-3
04-01-2018,18:00,10.97922,R,ugm-3,12.83071,R,ugm-3,29.66528,R,ugm-3
04-01-2018,19:00,7.43651,R,ugm-3,11.76914,R,ugm-3,23.17162,R,ugm-3
04-01-2018,20:00,4.18104,R,ugm-3,12.04237,R,ugm-3,18.45321,R,ugm-3
04-01-2018,21:00,1.85115,R,ugm-3,7.11233,R,ugm-3,9.95072,R,ugm-3
04-01-2018,22:00,5.29811,R,ugm-3,13.50630,R,ugm-3,21.62996,R,ugm-3
04-01-2018,23:00,2.74481,R,ugm-3,5.22819,R,ugm-3,9.43683,R,ugm-3
04-01-2018,24:00,0.92557,R,ugm-3,3.39266,R,ugm-3,4.81185,R,ugm-3
05-01-2018,01:00,0.85150,R,ugm-3,3.05627,R,ugm-3,4.36188,R,ugm-3
05-01-2018,02:00,0.76635,R,ugm-3,0.81895,R,ugm-3,1.99400,R,ugm-3
05-01-2018,03:00,0.60669,R,ugm-3,0.79892,R,ugm-3,1.72917,R,ugm-3
05-01-2018,04:00,0.60669,R,ugm-3,0.84566,R,ugm-3,1.77591,R,ugm-3
05-01-2018,05:00,0.86214,R,ugm-3,1.52887,R,ugm-3,2.85080,R,ugm-3
05-01-2018,06:00,3.25699,R,ugm-3,6.22229,R,ugm-3,11.21627,R,ugm-3
05-01-2018,07:00,5.65183,R,ugm-3,10.26143,R,ugm-3,18.92745,R,ugm-3
05-01-2018,08:00,7.24839,R,ugm-3,13.00093,R,ugm-3,24.11497,R,ugm-3
05-01-2018,09:00,27.71631,R,ugm-3,31.10900,R,ugm-3,73.60675,R,ugm-3
05-01-2018,10:00,11.91035,R,ugm-3,18.05038,R,ugm-3,36.31266,R,ugm-3
05-01-2018,11:00,10.69696,R,ugm-3,11.31174,R,ugm-3,27.71352,R,ugm-3
05-01-2018,12:00,5.10900,R,ugm-3,7.26154,R,ugm-3,15.09523,R,ugm-3
05-01-2018,13:00,7.79122,R,ugm-3,8.14944,R,ugm-3,20.09581,R,ugm-3
05-01-2018,14:00,6.13080,R,ugm-3,8.40540,R,ugm-3,17.80582,R,ugm-3
05-01-2018,15:00,10.95241,R,ugm-3,15.17289,R,ugm-3,31.96636,R,ugm-3
05-01-2018,16:00,13.69850,R,ugm-3,24.14140,R,ugm-3,45.14547,R,ugm-3
05-01-2018,17:00,17.97729,R,ugm-3,39.96648,R,ugm-3,67.53127,R,ugm-3
05-01-2018,18:00,19.22260,R,ugm-3,42.77720,R,ugm-3,72.25145,R,ugm-3
05-01-2018,19:00,21.20234,R,ugm-3,42.35878,R,ugm-3,74.86857,R,ugm-3
05-01-2018,20:00,23.46946,R,ugm-3,47.62192,R,ugm-3,83.60792,R,ugm-3
05-01-2018,21:00,11.94228,R,ugm-3,26.74076,R,ugm-3,45.05200,R,ugm-3
05-01-2018,22:00,9.93061,R,ugm-3,22.58143,R,ugm-3,37.80816,R,ugm-3
05-01-2018,23:00,15.80596,R,ugm-3,26.65834,R,ugm-3,50.89381,R,ugm-3
05-01-2018,24:00,3.89561,R,ugm-3,15.75833,R,ugm-3,21.73152,R,ugm-3
06-01-2018,01:00,4.72803,R,ugm-3,12.19925,R,ugm-3,19.44879,R,ugm-3
06-01-2018,02:00,7.66707,R,ugm-3,14.67440,R,ugm-3,26.43041,R,ugm-3
06-01-2018,03:00,9.16854,R,ugm-3,13.57215,R,ugm-3,27.63038,R,ugm-3
06-01-2018,04:00,6.16560,R,ugm-3,9.85475,R,ugm-3,19.30854,R,ugm-3
06-01-2018,05:00,21.53169,R,ugm-3,21.07716,R,ugm-3,54.09196,R,ugm-3
06-01-2018,06:00,14.50354,R,ugm-3,17.22015,R,ugm-3,39.45861,R,ugm-3
06-01-2018,07:00,28.75152,R,ugm-3,26.22983,R,ugm-3,70.31487,R,ugm-3
06-01-2018,08:00,40.31602,R,ugm-3,37.95154,R,ugm-3,99.76857,R,ugm-3
06-01-2018,09:00,74.49838,R,ugm-3,44.02596,R,ugm-3,158.25521,R,ugm-3
06-01-2018,10:00,75.84011,R,ugm-3,47.25162,R,ugm-3,163.53818,R,ugm-3
06-01-2018,11:00,54.53205,R,ugm-3,51.77889,R,ugm-3,135.39353,R,ugm-3
06-01-2018,12:00,53.12642,R,ugm-3,48.65119,R,ugm-3,130.11056,R,ugm-3
06-01-2018,13:00,37.15335,R,ugm-3,37.47118,R,ugm-3,94.43885,R,ugm-3
06-01-2018,14:00,43.89398,R,ugm-3,39.10417,R,ugm-3,106.40734,R,ugm-3
06-01-2018,15:00,44.75653,R,ugm-3,44.09313,R,ugm-3,112.71885,R,ugm-3
06-01-2018,16:00,40.37991,R,ugm-3,37.94708,R,ugm-3,99.86208,R,ugm-3
06-01-2018,17:00,32.52116,R,ugm-3,33.86758,R,ugm-3,83.73267,R,ugm-3
06-01-2018,18:00,19.77466,R,ugm-3,26.76336,R,ugm-3,57.08408,R,ugm-3
06-01-2018,19:00,12.13953,R,ugm-3,17.24503,R,ugm-3,35.85871,R,ugm-3
06-01-2018,20:00,8.17821,R,ugm-3,15.60490,R,ugm-3,28.14465,R,ugm-3
06-01-2018,21:00,9.80746,R,ugm-3,10.34839,R,ugm-3,25.38629,R,ugm-3
06-01-2018,22:00,6.77258,R,ugm-3,11.16815,R,ugm-3,21.55263,R,ugm-3
06-01-2018,23:00,5.20722,R,ugm-3,11.18399,R,ugm-3,19.16828,R,ugm-3
06-01-2018,24:00,3.13072,R,ugm-3,9.59922,R,ugm-3,14.39959,R,ugm-3
07-01-2018,01:00,2.59950,R,ugm-3,6.67758,R,ugm-3,10.66342,R,ugm-3
07-01-2018,02:00,2.04551,R,ugm-3,5.03265,R,ugm-3,8.16905,R,ugm-3
07-01-2018,03:00,1.50217,R,ugm-3,4.80565,R,ugm-3,7.10894,R,ugm-3
07-01-2018,04:00,1.37432,R,ugm-3,5.56291,R,ugm-3,7.67018,R,ugm-3
07-01-2018,05:00,2.65277,R,ugm-3,6.17498,R,ugm-3,10.24249,R,ugm-3
07-01-2018,06:00,2.23727,R,ugm-3,6.11052,R,ugm-3,9.54095,R,ugm-3
07-01-2018,07:00,4.28278,R,ugm-3,9.56860,R,ugm-3,16.13543,R,ugm-3
07-01-2018,08:00,7.15927,R,ugm-3,14.04422,R,ugm-3,25.02162,R,ugm-3
07-01-2018,09:00,11.28224,R,ugm-3,15.67321,R,ugm-3,32.97241,R,ugm-3
07-01-2018,10:00,14.98972,R,ugm-3,12.56081,R,ugm-3,35.54473,R,ugm-3
07-01-2018,11:00,11.25028,R,ugm-3,6.08773,R,ugm-3,23.33792,R,ugm-3
07-01-2018,12:00,15.37325,R,ugm-3,9.68103,R,ugm-3,33.25303,R,ugm-3
07-01-2018,13:00,15.59698,R,ugm-3,10.36692,R,ugm-3,34.28195,R,ugm-3
07-01-2018,14:00,14.54227,R,ugm-3,12.03089,R,ugm-3,34.32872,R,ugm-3
07-01-2018,15:00,18.15386,R,ugm-3,16.59537,R,ugm-3,44.43091,R,ugm-3
07-01-2018,16:00,17.57857,R,ugm-3,18.83380,R,ugm-3,45.78722,R,ugm-3
07-01-2018,17:00,19.81584,R,ugm-3,17.64829,R,ugm-3,48.03215,R,ugm-3
07-01-2018,18:00,12.84833,R,ugm-3,14.95561,R,ugm-3,34.65611,R,ugm-3
07-01-2018,19:00,10.29145,R,ugm-3,20.04534,R,ugm-3,35.82534,R,ugm-3
07-01-2018,20:00,8.66144,R,ugm-3,17.49356,R,ugm-3,30.77425,R,ugm-3
07-01-2018,21:00,9.04497,R,ugm-3,21.86304,R,ugm-3,35.73180,R,ugm-3
07-01-2018,22:00,5.91279,R,ugm-3,12.86869,R,ugm-3,21.93484,R,ugm-3
07-01-2018,23:00,1.91766,R,ugm-3,8.19074,R,ugm-3,11.13111,R,ugm-3
07-01-2018,24:00,0.95883,R,ugm-3,7.27569,R,ugm-3,8.74587,R,ugm-3
08-01-2018,01:00,1.19377,R,ugm-3,5.53071,R,ugm-3,7.36113,R,ugm-3
08-01-2018,02:00,0.46898,R,ugm-3,4.89533,R,ugm-3,5.61442,R,ugm-3
08-01-2018,03:00,0.47964,R,ugm-3,4.59826,R,ugm-3,5.33370,R,ugm-3
08-01-2018,04:00,1.53484,R,ugm-3,5.64716,R,ugm-3,8.00055,R,ugm-3
08-01-2018,05:00,2.90981,R,ugm-3,6.06539,R,ugm-3,10.52704,R,ugm-3
08-01-2018,06:00,7.45039,R,ugm-3,11.45499,R,ugm-3,22.87877,R,ugm-3
08-01-2018,07:00,30.21725,R,ugm-3,28.33933,R,ugm-3,74.67180,R,ugm-3
08-01-2018,08:00,44.86222,R,ugm-3,34.14327,R,ugm-3,102.93105,R,ugm-3
08-01-2018,09:00,59.12348,R,ugm-3,40.67592,R,ugm-3,131.33067,R,ugm-3
08-01-2018,10:00,37.31590,R,ugm-3,25.43984,R,ugm-3,82.65676,R,ugm-3
08-01-2018,11:00,29.20468,R,ugm-3,20.84647,R,ugm-3,65.62635,R,ugm-3
08-01-2018,12:00,35.25879,R,ugm-3,27.97022,R,ugm-3,82.03294,R,ugm-3
08-01-2018,13:00,34.08634,R,ugm-3,24.73057,R,ugm-3,76.99555,R,ugm-3
08-01-2018,14:00,22.86279,R,ugm-3,29.72841,R,ugm-3,64.78419,R,ugm-3
08-01-2018,15:00,39.17051,R,ugm-3,22.26865,R,ugm-3,82.32925,R,ugm-3
08-01-2018,16:00,52.66435,R,ugm-3,31.84947,R,ugm-3,112.60034,R,ugm-3
08-01-2018,17:00,63.37628,R,ugm-3,34.18625,R,ugm-3,131.36186,R,ugm-3
08-01-2018,18:00,47.89993,R,ugm-3,41.86844,R,ugm-3,115.31398,R,ugm-3
08-01-2018,19:00,30.28120,R,ugm-3,33.04473,R,ugm-3,79.47526,R,ugm-3
08-01-2018,20:00,14.35719,R,ugm-3,20.35924,R,ugm-3,42.37329,R,ugm-3
08-01-2018,21:00,7.86608,R,ugm-3,21.98408,R,ugm-3,34.04523,R,ugm-3
08-01-2018,22:00,4.82836,R,ugm-3,18.50093,R,ugm-3,25.90432,R,ugm-3
08-01-2018,23:00,3.58130,R,ugm-3,18.12051,R,ugm-3,23.61177,R,ugm-3
08-01-2018,24:00,2.84586,R,ugm-3,19.01425,R,ugm-3,23.37783,R,ugm-3
09-01-2018,01:00,1.87718,R,ugm-3,19.43055,R,ugm-3,22.30884,R,ugm-3
09-01-2018,02:00,0.98125,R,ugm-3,17.80477,R,ugm-3,19.30933,R,ugm-3
09-01-2018,03:00,2.07982,R,ugm-3,17.57320,R,ugm-3,20.76222,R,ugm-3
09-01-2018,04:00,3.77568,R,ugm-3,18.90978,R,ugm-3,24.69908,R,ugm-3
09-01-2018,05:00,4.57561,R,ugm-3,19.65166,R,ugm-3,26.66750,R,ugm-3
09-01-2018,06:00,33.08521,R,ugm-3,25.85126,R,ugm-3,76.58120,R,ugm-3
09-01-2018,07:00,87.48061,R,ugm-3,43.16400,R,ugm-3,177.29906,R,ugm-3
09-01-2018,08:00,161.10639,R,ugm-3,60.89192,R,ugm-3,307.91827,R,ugm-3
09-01-2018,09:00,107.38293,R,ugm-3,48.21983,R,ugm-3,212.87135,R,ugm-3
09-01-2018,10:00,70.33006,R,ugm-3,43.49665,R,ugm-3,151.33457,R,ugm-3
09-01-2018,11:00,82.64902,R,ugm-3,36.37154,R,ugm-3,163.09826,R,ugm-3
09-01-2018,12:00,94.71200,R,ugm-3,41.30888,R,ugm-3,186.53192,R,ugm-3
09-01-2018,13:00,51.70763,R,ugm-3,28.69837,R,ugm-3,107.98230,R,ugm-3
09-01-2018,14:00,36.47692,R,ugm-3,24.86876,R,ugm-3,80.79925,R,ugm-3
09-01-2018,15:00,45.02020,R,ugm-3,31.82846,R,ugm-3,100.85847,R,ugm-3
09-01-2018,16:00,45.85213,R,ugm-3,39.27017,R,ugm-3,109.57579,R,ugm-3
09-01-2018,17:00,43.61232,R,ugm-3,32.67490,R,ugm-3,99.54618,R,ugm-3
09-01-2018,18:00,47.22801,R,ugm-3,27.13091,R,ugm-3,99.54618,R,ugm-3
09-01-2018,19:00,51.73963,R,ugm-3,27.66509,R,ugm-3,106.99809,R,ugm-3
09-01-2018,20:00,14.68676,R,ugm-3,18.63012,R,ugm-3,41.14951,R,ugm-3
09-01-2018,21:00,7.51936,R,ugm-3,11.62292,R,ugm-3,23.15246,R,ugm-3
09-01-2018,22:00,6.52745,R,ugm-3,13.14384,R,ugm-3,23.15246,R,ugm-3
09-01-2018,23:00,3.93567,R,ugm-3,8.77547,R,ugm-3,14.81007,R,ugm-3
09-01-2018,24:00,2.81576,R,ugm-3,8.94601,R,ugm-3,13.26345,R,ugm-3
10-01-2018,01:00,2.13458,R,ugm-3,6.99294,R,ugm-3,10.26592,R,ugm-3
10-01-2018,02:00,0.85383,R,ugm-3,3.94896,R,ugm-3,5.25815,R,ugm-3
10-01-2018,03:00,0.92854,R,ugm-3,2.80156,R,ugm-3,4.22530,R,ugm-3
10-01-2018,04:00,0.86450,R,ugm-3,2.28943,R,ugm-3,3.61498,R,ugm-3
10-01-2018,05:00,1.08864,R,ugm-3,2.18050,R,ugm-3,3.84972,R,ugm-3
10-01-2018,06:00,2.62553,R,ugm-3,6.91308,R,ugm-3,10.93884,R,ugm-3
10-01-2018,07:00,9.06128,R,ugm-3,18.26546,R,ugm-3,32.15924,R,ugm-3
10-01-2018,08:00,23.24556,R,ugm-3,33.74615,R,ugm-3,69.38884,R,ugm-3
10-01-2018,09:00,12.10306,R,ugm-3,29.46983,R,ugm-3,48.02759,R,ugm-3
10-01-2018,10:00,18.18660,R,ugm-3,24.83663,R,ugm-3,52.72237,R,ugm-3
10-01-2018,11:00,16.87384,R,ugm-3,22.95285,R,ugm-3,48.82570,R,ugm-3
10-01-2018,12:00,20.87617,R,ugm-3,30.00835,R,ugm-3,62.01803,R,ugm-3
10-01-2018,13:00,19.17918,R,ugm-3,30.26297,R,ugm-3,59.67065,R,ugm-3
10-01-2018,14:00,16.55365,R,ugm-3,30.95544,R,ugm-3,56.33735,R,ugm-3
10-01-2018,15:00,15.17685,R,ugm-3,26.44687,R,ugm-3,49.71771,R,ugm-3
10-01-2018,16:00,12.93554,R,ugm-3,32.41867,R,ugm-3,52.25289,R,ugm-3
10-01-2018,17:00,51.80621,R,ugm-3,44.17846,R,ugm-3,123.61354,R,ugm-3
10-01-2018,18:00,207.76915,R,ugm-3,105.78618,R,ugm-3,424.36109,R,ugm-3
10-01-2018,19:00,188.36583,R,ugm-3,93.94177,R,ugm-3,382.76535,R,ugm-3
10-01-2018,20:00,130.66819,R,ugm-3,58.93756,R,ugm-3,259.29266,R,ugm-3
10-01-2018,21:00,36.59734,R,ugm-3,35.38611,R,ugm-3,91.50125,R,ugm-3
10-01-2018,22:00,73.61092,R,ugm-3,34.03114,R,ugm-3,146.89964,R,ugm-3
10-01-2018,23:00,23.24556,R,ugm-3,25.81197,R,ugm-3,61.45466,R,ugm-3
10-01-2018,24:00,24.33419,R,ugm-3,26.44320,R,ugm-3,63.75510,R,ugm-3
11-01-2018,01:00,18.83955,R,ugm-3,30.93306,R,ugm-3,59.81996,R,ugm-3
11-01-2018,02:00,3.03312,R,ugm-3,32.72107,R,ugm-3,37.37180,R,ugm-3
11-01-2018,03:00,3.30013,R,ugm-3,28.09481,R,ugm-3,33.15493,R,ugm-3
11-01-2018,04:00,6.47209,R,ugm-3,23.74851,R,ugm-3,33.67224,R,ugm-3
11-01-2018,05:00,12.91214,R,ugm-3,23.18550,R,ugm-3,42.98384,R,ugm-3
11-01-2018,06:00,24.70287,R,ugm-3,28.47967,R,ugm-3,66.35689,R,ugm-3
11-01-2018,07:00,119.09284,R,ugm-3,51.12402,R,ugm-3,233.73049,R,ugm-3
11-01-2018,08:00,144.62875,R,ugm-3,51.19107,R,ugm-3,272.95206,R,ugm-3
11-01-2018,09:00,80.93315,R,ugm-3,46.09954,R,ugm-3,170.19530,R,ugm-3
11-01-2018,10:00,107.17394,R,ugm-3,46.82583,R,ugm-3,211.15692,R,ugm-3
11-01-2018,11:00,111.75567,R,ugm-3,44.26830,R,ugm-3,215.62461,R,ugm-3
11-01-2018,12:00,90.44904,R,ugm-3,43.78308,R,ugm-3,182.46968,R,ugm-3
11-01-2018,13:00,91.41024,R,ugm-3,47.29426,R,ugm-3,187.45467,R,ugm-3
11-01-2018,14:00,103.64954,R,ugm-3,39.06193,R,ugm-3,197.98901,R,ugm-3
11-01-2018,15:00,70.03953,R,ugm-3,38.01895,R,ugm-3,145.41140,R,ugm-3
11-01-2018,16:00,85.41875,R,ugm-3,40.11524,R,ugm-3,171.08884,R,ugm-3
11-01-2018,17:00,130.37093,R,ugm-3,59.93187,R,ugm-3,259.83118,R,ugm-3
11-01-2018,18:00,107.97494,R,ugm-3,62.33971,R,ugm-3,227.89898,R,ugm-3
11-01-2018,19:00,70.32789,R,ugm-3,45.75972,R,ugm-3,153.59432,R,ugm-3
11-01-2018,20:00,53.53891,R,ugm-3,39.14702,R,ugm-3,121.23887,R,ugm-3
11-01-2018,21:00,52.35343,R,ugm-3,37.90790,R,ugm-3,118.18204,R,ugm-3
11-01-2018,22:00,35.14793,R,ugm-3,35.93125,R,ugm-3,89.82399,R,ugm-3
11-01-2018,23:00,29.86132,R,ugm-3,37.64143,R,ugm-3,83.42815,R,ugm-3
11-01-2018,24:00,23.99799,R,ugm-3,37.64934,R,ugm-3,74.44575,R,ugm-3
12-01-2018,01:00,19.70708,R,ugm-3,31.77800,R,ugm-3,61.99511,R,ugm-3
12-01-2018,02:00,15.21849,R,ugm-3,32.50488,R,ugm-3,55.83956,R,ugm-3
12-01-2018,03:00,16.38338,R,ugm-3,30.42037,R,ugm-3,55.54121,R,ugm-3
12-01-2018,04:00,12.92075,R,ugm-3,31.63121,R,ugm-3,51.44275,R,ugm-3
12-01-2018,05:00,27.18808,R,ugm-3,31.84894,R,ugm-3,73.53675,R,ugm-3
12-01-2018,06:00,51.33033,R,ugm-3,32.51834,R,ugm-3,111.22374,R,ugm-3
12-01-2018,07:00,121.96163,R,ugm-3,51.03526,R,ugm-3,238.04048,R,ugm-3
12-01-2018,08:00,200.51209,R,ugm-3,59.29397,R,ugm-3,366.74156,R,ugm-3
12-01-2018,09:00,138.79387,R,ugm-3,56.36506,R,ugm-3,269.17936,R,ugm-3
12-01-2018,10:00,120.45474,R,ugm-3,49.81263,R,ugm-3,234.50732,R,ugm-3
12-01-2018,11:00,87.43148,R,ugm-3,46.50808,R,ugm-3,180.56781,R,ugm-3
12-01-2018,12:00,50.01581,R,ugm-3,36.74802,R,ugm-3,113.43785,R,ugm-3
12-01-2018,13:00,51.93949,R,ugm-3,38.69772,R,ugm-3,118.33716,R,ugm-3
12-01-2018,14:00,44.91804,R,ugm-3,41.87928,R,ugm-3,110.75265,R,ugm-3
12-01-2018,15:00,49.47076,R,ugm-3,46.20464,R,ugm-3,122.05875,R,ugm-3
12-01-2018,16:00,45.81576,R,ugm-3,33.86046,R,ugm-3,104.11032,R,ugm-3
12-01-2018,17:00,34.62633,R,ugm-3,34.01110,R,ugm-3,87.10407,R,ugm-3
12-01-2018,18:00,19.14067,R,ugm-3,27.60586,R,ugm-3,56.95447,R,ugm-3
12-01-2018,19:00,15.83834,R,ugm-3,20.65663,R,ugm-3,44.94174,R,ugm-3
12-01-2018,20:00,16.96049,R,ugm-3,22.18652,R,ugm-3,48.19224,R,ugm-3
12-01-2018,21:00,6.31610,R,ugm-3,12.97476,R,ugm-3,22.65931,R,ugm-3
12-01-2018,22:00,3.94356,R,ugm-3,12.37282,R,ugm-3,18.41952,R,ugm-3
12-01-2018,23:00,3.04583,R,ugm-3,13.08978,R,ugm-3,17.76000,R,ugm-3
12-01-2018,24:00,3.01377,R,ugm-3,11.96122,R,ugm-3,16.58228,R,ugm-3
13-01-2018,01:00,1.24054,R,ugm-3,6.59193,R,ugm-3,8.49406,R,ugm-3
13-01-2018,02:00,1.02665,R,ugm-3,4.21437,R,ugm-3,5.78855,R,ugm-3
13-01-2018,03:00,2.40621,R,ugm-3,6.92810,R,ugm-3,10.61758,R,ugm-3
13-01-2018,04:00,2.11746,R,ugm-3,5.29452,R,ugm-3,8.54125,R,ugm-3
13-01-2018,05:00,3.36869,R,ugm-3,7.71740,R,ugm-3,12.88266,R,ugm-3
13-01-2018,06:00,4.52367,R,ugm-3,8.82500,R,ugm-3,15.76120,R,ugm-3
13-01-2018,07:00,6.19198,R,ugm-3,13.91162,R,ugm-3,23.40585,R,ugm-3
13-01-2018,08:00,11.99896,R,ugm-3,23.60025,R,ugm-3,41.99840,R,ugm-3
13-01-2018,09:00,15.97723,R,ugm-3,26.08877,R,ugm-3,50.58684,R,ugm-3
13-01-2018,10:00,14.75808,R,ugm-3,18.61463,R,ugm-3,41.24338,R,ugm-3
13-01-2018,11:00,19.95549,R,ugm-3,21.07420,R,ugm-3,51.67219,R,ugm-3
13-01-2018,12:00,20.37257,R,ugm-3,24.72891,R,ugm-3,55.96641,R,ugm-3
13-01-2018,13:00,17.90220,R,ugm-3,23.13719,R,ugm-3,50.58684,R,ugm-3
13-01-2018,14:00,25.18499,R,ugm-3,21.07792,R,ugm-3,59.69436,R,ugm-3
13-01-2018,15:00,14.91850,R,ugm-3,23.32353,R,ugm-3,46.19825,R,ugm-3
13-01-2018,16:00,15.17516,R,ugm-3,24.15691,R,ugm-3,47.42516,R,ugm-3
13-01-2018,17:00,21.04631,R,ugm-3,33.84154,R,ugm-3,66.11209,R,ugm-3
13-01-2018,18:00,14.59767,R,ugm-3,27.82655,R,ugm-3,50.20933,R,ugm-3
13-01-2018,19:00,11.42147,R,ugm-3,20.85215,R,ugm-3,38.36483,R,ugm-3
13-01-2018,20:00,12.54437,R,ugm-3,25.21781,R,ugm-3,44.45224,R,ugm-3
13-01-2018,21:00,5.83907,R,ugm-3,16.81220,R,ugm-3,25.76531,R,ugm-3
13-01-2018,22:00,4.81242,R,ugm-3,14.42248,R,ugm-3,21.80142,R,ugm-3
13-01-2018,23:00,9.81733,R,ugm-3,17.69628,R,ugm-3,32.74932,R,ugm-3
13-01-2018,24:00,4.04243,R,ugm-3,11.35608,R,ugm-3,17.55439,R,ugm-3
14-01-2018,01:00,3.12481,R,ugm-3,8.82237,R,ugm-3,13.61367,R,ugm-3
14-01-2018,02:00,2.09747,R,ugm-3,6.67904,R,ugm-3,9.89512,R,ugm-3
14-01-2018,03:00,2.15098,R,ugm-3,5.30496,R,ugm-3,8.60309,R,ugm-3
14-01-2018,04:00,3.43515,R,ugm-3,7.77929,R,ugm-3,13.04644,R,ugm-3
14-01-2018,05:00,2.50412,R,ugm-3,7.83601,R,ugm-3,11.67561,R,ugm-3
14-01-2018,06:00,4.49458,R,ugm-3,9.55826,R,ugm-3,16.44985,R,ugm-3
14-01-2018,07:00,7.15923,R,ugm-3,17.57357,R,ugm-3,28.55089,R,ugm-3
14-01-2018,08:00,9.50283,R,ugm-3,21.63778,R,ugm-3,36.20858,R,ugm-3
14-01-2018,09:00,28.73322,R,ugm-3,30.44004,R,ugm-3,74.49704,R,ugm-3
14-01-2018,10:00,44.43216,R,ugm-3,39.74108,R,ugm-3,107.86944,R,ugm-3
14-01-2018,11:00,30.49895,R,ugm-3,31.41966,R,ugm-3,78.18407,R,ugm-3
14-01-2018,12:00,29.50372,R,ugm-3,24.15350,R,ugm-3,69.39191,R,ugm-3
14-01-2018,13:00,22.85816,R,ugm-3,26.26010,R,ugm-3,61.30879,R,ugm-3
14-01-2018,14:00,29.88897,R,ugm-3,30.46416,R,ugm-3,76.29328,R,ugm-3
14-01-2018,15:00,23.17921,R,ugm-3,31.10932,R,ugm-3,66.65027,R,ugm-3
14-01-2018,16:00,34.51197,R,ugm-3,34.15315,R,ugm-3,87.07077,R,ugm-3
14-01-2018,17:00,48.25256,R,ugm-3,40.45371,R,ugm-3,114.43993,R,ugm-3
14-01-2018,18:00,25.74754,R,ugm-3,36.48339,R,ugm-3,75.96240,R,ugm-3
14-01-2018,19:00,12.19958,R,ugm-3,22.32433,R,ugm-3,41.03009,R,ugm-3
14-01-2018,20:00,8.53971,R,ugm-3,22.07462,R,ugm-3,35.16865,R,ugm-3
14-01-2018,21:00,7.99394,R,ugm-3,23.47869,R,ugm-3,35.73589,R,ugm-3
14-01-2018,22:00,8.05814,R,ugm-3,19.55139,R,ugm-3,31.90704,R,ugm-3
14-01-2018,23:00,3.56356,R,ugm-3,14.48376,R,ugm-3,19.94781,R,ugm-3
14-01-2018,24:00,1.60521,R,ugm-3,8.55256,R,ugm-3,11.01384,R,ugm-3
15-01-2018,01:00,0.64251,R,ugm-3,4.25492,R,ugm-3,5.24009,R,ugm-3
15-01-2018,02:00,0.64251,R,ugm-3,5.70699,R,ugm-3,6.69216,R,ugm-3
15-01-2018,03:00,0.64251,R,ugm-3,4.22335,R,ugm-3,5.20852,R,ugm-3
15-01-2018,04:00,0.73889,R,ugm-3,3.79147,R,ugm-3,4.92442,R,ugm-3
15-01-2018,05:00,1.06014,R,ugm-3,3.01479,R,ugm-3,4.64032,R,ugm-3
15-01-2018,06:00,2.31304,R,ugm-3,3.93472,R,ugm-3,7.48133,R,ugm-3
15-01-2018,07:00,6.00748,R,ugm-3,4.52022,R,ugm-3,13.73155,R,ugm-3
15-01-2018,08:00,7.64588,R,ugm-3,12.85122,R,ugm-3,24.57474,R,ugm-3
15-01-2018,09:00,6.71424,R,ugm-3,6.51429,R,ugm-3,16.80931,R,ugm-3
15-01-2018,10:00,4.24057,R,ugm-3,2.11561,R,ugm-3,8.61773,R,ugm-3
15-01-2018,11:00,4.27270,R,ugm-3,5.90172,R,ugm-3,12.45310,R,ugm-3
15-01-2018,12:00,2.82705,R,ugm-3,5.37204,R,ugm-3,9.70679,R,ugm-3
15-01-2018,13:00,5.04371,R,ugm-3,7.03967,R,ugm-3,14.77325,R,ugm-3
15-01-2018,14:00,6.84274,R,ugm-3,10.91022,R,ugm-3,21.40228,R,ugm-3
15-01-2018,15:00,14.32799,R,ugm-3,18.94127,R,ugm-3,40.91055,R,ugm-3
15-01-2018,16:00,18.76131,R,ugm-3,19.62493,R,ugm-3,48.39187,R,ugm-3
15-01-2018,17:00,19.75720,R,ugm-3,22.07533,R,ugm-3,52.36929,R,ugm-3